COSMOS 2589

Last updated on Sun Jun 21 2026 00:03:09 GMT+0000 (Coordinated Universal Time)

1 64467U 25131A 26171.26869691 -.00000296 00000+0 00000+0 0 9999 2 64467 0.0427 87.6996 0000241 16.8448 358.6431 1.00271371 3594
UTC large
Height (km)
Speed (km/s)
/
Latitude / Longitude
Inclination (degrees)
Orbital Period (minutes)
Azimuth
Elevation
Range (km)
Doppler Factor

Next 0 passes for location: London (51.5072 / 0.1276)

No passes found over London.
COSMOS 2589